Weather History for NZCH - February, 2013

Change the Weather History Date:

Saturday, February 23, 2013

  Actual Average Record
Temperature  
Mean Temperature 54 °F -  
Max Temperature 68 °F - - ()
Min Temperature 41 °F - - ()
Degree Days  
Heating Degree Days 10    
Growing Degree Days 4 (Base 50)    
Moisture  
Dew Point 45 °F    
Average Humidity 75    
Maximum Humidity 100    
Minimum Humidity 46    
Precipitation  
Precipitation 0.00 in - - ()
Sea Level Pressure  
Sea Level Pressure 30.32 in    
Wind  
Wind Speed 4 mph ()    
Max Wind Speed 12 mph    
Max Gust Speed -    
Visibility 6.2 miles    
Events      
T = Trace of Precipitation, MM = Missing Value Source: Averaged Metar Reports

Daily Weather History Graph

Daily Weather History Graph

Search for Another Location

Airport or City:

Trip Planner

Search our weather history database for the weather conditions in past years. The results will help you decide how hot, cold, wet, or windy it might be!

Date:

Astronomy

Feb. 23, 2013 Rise Set
Actual Time 7:00 AM NZDT 8:25 PM NZDT
Civil Twilight 6:30 AM NZDT 8:55 PM NZDT
Nautical Twilight 5:54 AM NZDT 9:30 PM NZDT
Astronomical Twilight 5:16 AM NZDT 10:09 PM NZDT
Moon 6:34 PM NZDT (2/23) 4:03 AM NZDT (2/23)
Length of Visible Light 14h 24m
Length of Day
13h 25m
Waxing Gibbous, 91% of the Moon is Illuminated
Feb 23
Waxing Gibbous
Feb 26
Full
Mar 5
Last Quarter
Mar 12
New
Mar 20
First Quarter

Hourly Weather History & Observations

Time (NZDT) Temp. Windchill Dew Point Humidity Pressure Visibility Wind Dir Wind Speed Gust Speed Precip Events Conditions
12:00 AM 42.8 °F - 41.0 °F 93% 30.30 in - Calm Calm - N/A   Clear
1:00 AM 41.0 °F - 39.2 °F 93% 30.30 in - WSW 2.3 mph - N/A   Clear
2:00 AM 41.0 °F - 41.0 °F 100% 30.30 in - WSW 1.2 mph - N/A   Clear
3:00 AM 41.0 °F - 39.2 °F 93% 30.30 in - SSW 2.3 mph - N/A   Clear
4:00 AM 44.6 °F 42.2 °F 42.8 °F 93% 30.30 in - WSW 4.6 mph - N/A   Clear
5:00 AM 41.0 °F 39.0 °F 41.0 °F 100% 30.30 in - WSW 3.5 mph - N/A   Clear
6:00 AM 42.8 °F 40.1 °F 42.8 °F 100% 30.30 in - West 4.6 mph - N/A   Clear
7:00 AM 41.0 °F 39.0 °F 39.2 °F 93% 30.30 in - West 3.5 mph - N/A   Clear
8:00 AM 46.4 °F 43.5 °F 46.4 °F 100% 30.30 in 6.2 mi West 5.8 mph - N/A   Partly Cloudy
9:00 AM 51.8 °F - 50.0 °F 94% 30.33 in 6.2 mi SW 3.5 mph - N/A   Partly Cloudy
10:00 AM 59.0 °F - 50.0 °F 72% 30.33 in 6.2 mi SSW 6.9 mph - N/A   Scattered Clouds
11:00 AM 60.8 °F - 46.4 °F 59% 30.33 in 6.2 mi South 9.2 mph - N/A   Scattered Clouds
12:00 PM 64.4 °F - 46.4 °F 52% 30.33 in 6.2 mi South 10.4 mph - N/A   Scattered Clouds
1:00 PM 64.4 °F - 46.4 °F 52% 30.33 in 6.2 mi South 11.5 mph - N/A   Scattered Clouds
2:00 PM 64.4 °F - 44.6 °F 49% 30.33 in 6.2 mi SSW 9.2 mph - N/A   Scattered Clouds
3:00 PM 66.2 °F - 44.6 °F 46% 30.30 in 6.2 mi SW 8.1 mph - N/A   Scattered Clouds
4:00 PM 68.0 °F - 46.4 °F 46% 30.30 in 6.2 mi South 8.1 mph - N/A   Scattered Clouds
5:00 PM 66.2 °F - 46.4 °F 49% 30.30 in 6.2 mi South 9.2 mph - N/A   Partly Cloudy
6:00 PM 66.2 °F - 48.2 °F 52% 30.30 in 6.2 mi South 10.4 mph - N/A   Partly Cloudy
7:00 PM 62.6 °F - 48.2 °F 59% 30.33 in 6.2 mi South 9.2 mph - N/A   Partly Cloudy
8:00 PM 60.8 °F - 50.0 °F 68% 30.33 in 6.2 mi South 9.2 mph - N/A   Partly Cloudy
9:00 PM 55.4 °F - 48.2 °F 77% 30.36 in 6.2 mi Calm Calm - N/A   Partly Cloudy
10:00 PM 51.8 °F - 46.4 °F 82% 30.39 in 6.2 mi WSW 1.2 mph - N/A   Partly Cloudy
11:00 PM 48.2 °F - 44.6 °F 87% 30.39 in - West 3.5 mph - N/A   Clear